Regional Weather Roundup
Issued by NWS Glasgow, MT

Home | Current Version | Previous Version | Text Only | Print | Product List | Glossary On
Versions: 1 2 3 4 5 6 7 8 9 10 11 12 13 14 15 16 17 18 19 20 21 22 23 24 25 26 27 28 29 30 31 32 33 34 35 36 37 38 39 40 41 42 43 44 45 46 47 48 49 50
752
ASUS45 KGGW 040415
RWRGGW
HOURLY REGIONAL WEATHER ROUNDUP FOR NORTHEAST MONTANA
NATIONAL WEATHER SERVICE GLASGOW MONTANA
900 PM MST SAT DEC 03 2016

NOTE: "FAIR" INDICATES FEW OR NO CLOUDS BELOW 12,000 FEET WITH NO
SIGNIFICANT WEATHER AND/OR OBSTRUCTIONS TO VISISBILITY.

NORTHEAST MONTANA


CITY           SKY/WX    TMP DP  RH WIND       PRES   REMARKS
GLASGOW        CLEAR     28  25  88 W12       29.82R
PLENTYWOOD       N/A     33  32  96 NW9G18      N/A
WOLF POINT     CLEAR     31  27  85 W13       29.81R
JORDAN           N/A     25  20  81 W8        29.84S
WINNETT          N/A     37  24  59 W8G26       N/A
SIDNEY         PTCLDY    35  29  78 W14       29.77S
GLENDIVE       CLEAR     31  25  78 W10       29.82R

FORT PECK REPORTS


CITY           SKY/WX    TMP DP  RH WIND       PRES   REMARKS
FORT PECK        N/A     34  29  82 W13G22      N/A
THE PINES        N/A     33  25  72 SW2         N/A

SOUTHEAST MONTANA


CITY           SKY/WX    TMP DP  RH WIND       PRES   REMARKS
BILLINGS       CLEAR     35  18  49 W14       29.93S
MILES CITY     CLOUDY    32  20  61 W9        29.86S
BAKER          CLEAR     31  22  69 W15       29.83S
LIVINGSTON     CLOUDY    35  15  44 SW21G36   29.96R

CENTRAL MONTANA


CITY           SKY/WX    TMP DP  RH WIND       PRES   REMARKS
HAVRE          CLEAR     30  21  69 SW10      29.87R
LEWISTOWN      CLOUDY    29  18  63 NW7       29.89S
GREAT FALLS    PTCLDY    31  20  63 SW14      29.89F
CUT BANK       CLOUDY    30  21  69 W18       29.83F
HELENA         CLOUDY    37  21  52 W9        29.98F
BUTTE          CLOUDY    29  14  53 W14G21    30.00R
BOZEMAN        CLOUDY    35  16  45 SW16      30.00S

WESTERN MONTANA


CITY           SKY/WX    TMP DP  RH WIND       PRES   REMARKS
MISSOULA       CLOUDY    32  30  92 NE6       30.05F
KALISPELL      NOT AVBL

NORTH DAKOTA


CITY           SKY/WX    TMP DP  RH WIND       PRES   REMARKS
WILLISTON      FLURRIES  34  32  92 W10       29.74S
DICKINSON      PTCLDY    31  29  92 W13       29.75S
MINOT          LGT SNOW  30  28  92 S6        29.71F FOG
BISMARCK       CLOUDY    26  24  92 SE5       29.80F

SOUTHERN SASKATCHEWAN


CITY           SKY/WX    TMP DP  RH WIND       PRES   REMARKS
REGINA         LGT SNOW  23  23 100 W13       29.73R FOG
ESTEVAN        NOT AVBL
SWIFT CURRENT  CLOUDY    27  27 100 W9        29.73F





USA.gov is the U.S. government's official web portal to all federal, state and local government web resources and services.